Wind_Speed
9 7 7 7 7 5 3 3 4 7 9 11 12 15 12 14 15 14 14 15 15 16 20 23 26 30 33 34 36 37 38 39 41 43 45 48 50 52 52 51 52 52 52 53
5 6 7 6 4 3 4 5 7 7 8 11 11 12 12 12 13 15 15 17 19 22 25 27 30 33 35 36 37 39 39 41 44 47 48 50 53 53 51 52 53 54 55 57
6 7 7 6 6 8 8 8 9 11 11 13 14 15 14 14 15 17 18 19 22 25 27 30 33 35 36 37 40 41 41 44 47 50 51 51 51 51 53 56 57 59 61 64
8 8 8 9 10 11 12 12 12 12 14 15 14 17 15 16 18 18 20 22 25 27 30 31 33 36 37 40 42 43 45 49 50 50 50 51 52 54 58 60 62 63 65 66
10 11 11 13 14 15 16 16 16 15 15 16 15 16 16 18 19 21 23 27 29 31 32 33 35 38 41 43 44 45 46 46 48 50 52 53 56 59 62 63 64 71 73 74
13 15 16 18 18 18 18 18 18 19 18 17 17 18 21 20 22 26 30 31 33 34 34 35 38 40 42 43 43 43 45 48 50 52 53 57 62 65 66 68 69 73 76 77
15 18 18 18 19 20 19 17 18 18 18 18 18 21 22 25 27 29 32 33 35 36 37 39 39 40 41 41 43 46 49 51 54 56 60 64 68 69 71 72 74 76 78 79
13 11 11 11 13 14 14 13 14 16 18 20 20 24 25 28 29 31 33 35 37 38 38 39 40 39 43 46 49 52 53 55 59 63 67 68 70 73 75 75 76 77 78 80
6 8 8 9 10 11 12 14 15 17 19 21 23 24 25 28 30 32 33 36 36 35 37 37 40 43 47 51 52 53 56 59 63 66 67 68 70 73 75 77 77 78 81 81
7 9 11 12 13 15 16 17 19 20 22 22 22 27 25 28 33 33 34 34 35 35 40 42 44 48 50 52 55 58 60 63 65 67 69 72 74 77 77 79 80 80 79 80
11 13 14 16 17 18 19 21 22 24 25 27 27 23 29 35 35 37 34 33 33 37 40 43 46 48 52 56 59 62 64 67 69 69 72 76 78 80 80 80 80 80 79 82
12 14 17 19 21 22 23 24 27 29 31 31 32 27 30 37 38 35 34 34 38 40 44 47 50 54 57 60 62 65 68 69 70 73 78 79 80 81 79 79 81 83 84 88
13 17 20 22 23 25 27 28 29 31 33 31 35 32 36 38 36 36 35 39 42 45 49 52 55 57 60 64 67 71 71 70 75 78 84 85 84 81 80 81 81 85 90 92
17 22 23 27 29 30 29 29 30 32 34 36 32 36 31 35 35 37 40 43 46 50 53 57 60 64 68 69 73 74 75 77 79 79 87 90 86 84 84 84 85 86 88 71
21 24 27 31 32 31 28 30 32 32 33 36 32 31 35 34 36 39 41 44 49 53 57 61 64 68 72 76 77 75 74 77 78 87 94 91 88 87 86 86 85 74 65 58
26 30 33 33 35 34 29 31 31 33 35 35 34 33 33 37 38 41 46 50 54 59 62 67 72 76 79 79 77 76 75 76 86 94 93 91 88 88 84 78 69 61 54 51
30 36 39 39 41 34 30 28 28 28 31 32 33 35 37 40 43 47 53 56 60 64 68 72 78 80 80 77 74 76 81 88 90 90 88 86 86 82 73 63 57 51 51 52
34 40 46 48 46 33 30 29 26 23 23 28 31 34 36 42 47 52 57 61 65 68 72 77 78 78 78 73 76 81 86 85 87 84 83 82 78 68 60 52 49 50 51 51
37 45 49 48 43 30 26 29 26 26 23 28 33 37 43 47 51 57 60 63 68 73 76 75 76 78 77 78 79 80 82 83 81 81 78 75 65 60 51 48 49 49 51 53
41 48 47 45 42 37 31 29 30 31 34 36 40 44 48 53 61 65 68 72 75 77 77 76 76 77 78 78 79 79 78 75 76 75 72 64 61 54 48 48 48 50 52 55
46 48 43 42 40 33 34 35 38 39 43 46 50 54 58 62 67 71 77 78 80 80 78 78 79 78 79 78 78 75 73 74 73 71 64 58 57 49 48 47 50 51 54 56
47 44 40 40 36 35 36 40 43 46 48 51 54 58 62 66 71 75 76 73 74 77 77 78 78 77 78 78 76 72 73 73 70 65 58 56 50 47 46 48 50 51 55 56
40 38 37 37 30 37 41 46 46 50 53 56 58 63 67 73 77 78 76 74 75 76 78 78 79 79 78 76 74 74 72 70 65 58 57 52 46 44 45 47 48 52 55 53
37 35 38 39 36 42 46 49 51 55 56 59 63 68 73 75 74 76 76 76 78 78 80 81 80 78 76 75 75 74 70 64 59 58 52 42 41 40 44 45 47 51 52 45
35 38 43 43 43 46 49 52 54 56 60 64 69 74 76 78 78 76 76 78 79 81 82 82 80 78 76 74 71 68 65 62 60 52 39 36 34 39 42 42 45 49 47 40
35 38 44 48 51 54 57 58 59 63 68 70 73 76 77 76 75 76 77 80 81 80 80 78 75 74 72 69 68 67 64 58 46 32 32 29 32 37 39 40 44 46 41 39
Wind_Direction
139 159 172 185 189 194 211 244 245 237 253 260 256 268 269 268 275 276 284 292 294 292 287 288 298 304 306 305 303 304 304 302 304 305 303 302 304 303 302 300 300 300 300 299
165 185 200 202 216 249 268 266 271 267 263 277 278 270 267 266 280 287 286 288 291 290 295 303 302 302 299 297 298 298 297 298 299 299 298 297 299 300 297 296 296 296 294 293
205 217 229 247 256 262 271 276 278 280 271 264 268 268 267 273 279 284 287 290 293 298 300 297 293 292 293 293 293 293 293 294 294 295 296 297 296 295 294 296 297 298 297 296
235 249 258 267 270 273 274 277 280 284 286 279 266 270 270 279 284 288 289 295 298 297 291 286 285 289 290 292 292 290 291 293 294 294 295 293 294 295 297 297 296 295 294 293
263 270 274 273 273 274 276 277 279 282 284 281 272 264 276 277 284 290 291 291 290 288 289 288 289 290 289 290 290 291 292 293 293 293 293 294 297 299 299 297 297 298 300 300
268 274 279 280 278 275 278 278 278 275 277 276 274 268 275 280 284 287 288 288 288 289 287 285 285 286 287 289 291 293 294 294 294 296 298 298 297 300 301 301 299 298 299 299
277 284 284 280 275 274 275 275 275 276 276 275 272 272 282 284 286 286 286 287 289 289 289 291 292 292 293 295 296 297 299 300 301 299 299 302 303 303 301 300 300 298 297 297
285 292 298 300 297 289 285 281 276 276 279 283 283 287 290 289 286 287 288 289 291 294 296 297 298 299 301 303 304 304 302 302 302 301 303 304 303 303 302 300 300 301 300 299
296 308 312 315 313 311 306 299 292 286 283 282 284 285 286 288 288 289 292 295 298 298 298 297 300 303 304 303 303 302 301 302 302 302 301 300 300 303 305 305 304 303 302 301
310 311 312 310 304 302 300 297 295 290 288 286 289 295 299 294 293 293 294 298 301 305 306 304 302 303 302 303 302 302 301 300 300 302 304 306 307 307 306 305 305 303 302 301
315 313 312 309 307 306 302 298 294 291 291 291 289 291 299 296 295 295 303 305 304 302 300 301 302 302 302 301 300 301 303 304 307 307 307 307 308 309 308 306 304 304 302 301
328 324 325 324 320 313 309 305 301 300 297 295 296 302 297 296 300 303 303 302 302 303 304 305 305 304 303 303 305 306 306 306 304 306 308 311 312 312 310 307 306 306 303 301
352 343 340 334 330 325 320 307 302 299 295 295 298 305 303 298 303 302 302 304 306 308 306 303 303 304 307 308 308 307 304 304 308 310 314 316 315 313 311 310 304 302 303 304
346 346 346 338 332 327 319 313 301 300 302 295 298 302 298 304 305 304 306 306 304 303 304 304 306 307 308 308 309 308 306 306 309 306 311 316 315 313 312 310 308 306 306 307
329 333 333 332 331 333 318 307 302 299 297 300 299 303 304 305 303 304 304 303 303 304 304 307 308 309 310 311 310 310 310 305 305 307 315 314 313 314 314 313 310 310 308 308
322 324 323 327 325 327 318 303 299 296 297 299 303 304 305 307 308 307 306 305 305 308 309 310 311 311 311 312 312 313 310 305 305 313 312 313 316 317 316 313 311 310 310 309
319 321 321 320 320 324 314 303 303 305 302 303 306 309 313 311 309 307 304 308 309 309 310 311 311 312 314 315 312 307 307 308 309 310 313 316 318 318 315 313 312 310 309 309
318 319 318 317 317 326 314 307 305 305 306 303 307 309 306 305 305 308 308 309 311 311 312 312 313 315 314 313 307 306 307 310 311 314 316 318 320 317 316 314 312 311 311 310
316 319 316 316 316 322 305 304 302 304 306 305 306 304 305 308 310 311 312 309 310 314 316 316 314 314 314 312 310 310 310 311 315 318 318 320 318 318 317 314 314 313 313 313
315 316 313 310 310 315 306 305 305 307 306 311 306 307 309 311 314 317 315 316 317 316 316 316 314 313 312 311 311 311 313 315 316 317 319 319 318 318 316 316 315 315 316 316
315 313 308 307 308 307 301 304 308 308 313 312 312 314 316 316 315 316 318 318 315 315 313 314 314 313 312 313 313 314 314 315 316 317 318 316 317 315 316 316 316 318 319 319
316 310 307 306 308 301 298 303 307 310 311 312 313 314 313 313 313 316 314 311 309 310 313 312 312 314 313 313 313 314 313 314 315 317 315 315 314 314 316 317 319 320 321 322
314 306 307 305 313 300 300 303 305 309 310 313 313 314 313 313 313 314 313 311 311 312 312 313 314 313 313 313 312 311 312 313 314 313 313 314 312 314 315 319 321 323 324 325
309 302 303 304 307 302 302 302 306 308 310 311 310 310 313 312 309 309 311 312 312 313 313 312 312 313 312 310 311 311 311 313 312 312 312 310 310 314 319 322 323 326 328 330
302 299 297 304 306 305 304 306 306 307 308 309 311 312 309 309 311 312 312 313 313 313 312 313 312 312 310 310 310 310 311 309 308 309 308 307 311 318 323 323 328 330 331 334
298 297 300 304 305 306 308 309 309 309 310 310 309 307 308 310 311 312 313 313 313 312 312 312 312 311 312 311 310 309 307 306 307 307 305 307 316 324 325 326 331 333 334 335
Height
5825 5827 5827 5828 5829 5828 5828 5828 5828 5827 5827 5827 5827 5825 5825 5824 5823 5822 5820 5819 5818 5816 5812 5809 5807 5804 5801 5797 5793 5790 5786 5782 5776 5771 5767 5762 5757 5753 5748 5743 5738 5734 5729 5724
5825 5826 5826 5826 5826 5827 5827 5826 5826 5826 5825 5824 5824 5822 5822 5821 5820 5818 5816 5814 5812 5810 5807 5805 5802 5798 5795 5791 5788 5783 5779 5774 5769 5764 5759 5754 5749 5744 5738 5733 5728 5722 5717 5712
5823 5824 5824 5824 5824 5824 5824 5823 5823 5822 5822 5821 5821 5820 5819 5818 5816 5814 5812 5810 5808 5805 5802 5799 5797 5793 5789 5785 5780 5774 5770 5765 5760 5755 5750 5745 5739 5733 5728 5722 5716 5711 5705 5699
5821 5821 5821 5821 5821 5821 5821 5820 5820 5819 5818 5818 5818 5817 5815 5813 5810 5809 5807 5805 5803 5800 5797 5793 5789 5785 5781 5776 5771 5766 5762 5757 5752 5746 5740 5734 5729 5724 5718 5712 5705 5698 5691 5685
5820 5819 5819 5819 5818 5817 5817 5816 5816 5816 5815 5814 5813 5812 5810 5808 5806 5804 5802 5800 5797 5793 5790 5785 5781 5776 5771 5767 5762 5758 5753 5747 5741 5736 5730 5724 5719 5712 5704 5698 5690 5682 5676 5668
5817 5816 5816 5815 5814 5813 5812 5812 5811 5811 5810 5809 5808 5807 5804 5804 5802 5799 5796 5793 5789 5785 5782 5777 5773 5768 5763 5758 5753 5748 5742 5736 5730 5723 5718 5712 5705 5697 5689 5681 5674 5667 5659 5652
5813 5812 5811 5810 5809 5808 5808 5808 5807 5806 5805 5804 5802 5801 5799 5797 5795 5792 5788 5785 5781 5777 5772 5767 5763 5758 5754 5748 5742 5736 5730 5723 5717 5711 5704 5697 5689 5681 5673 5666 5659 5652 5644 5635
5810 5809 5807 5806 5805 5805 5804 5803 5803 5801 5801 5799 5798 5795 5794 5790 5787 5784 5780 5776 5772 5767 5761 5757 5752 5747 5742 5736 5730 5725 5718 5712 5705 5697 5690 5682 5674 5666 5658 5649 5640 5632 5623 5614
5806 5806 5805 5803 5802 5802 5800 5799 5799 5797 5796 5794 5793 5791 5787 5782 5778 5775 5772 5767 5762 5757 5753 5749 5744 5739 5733 5727 5721 5715 5708 5700 5693 5685 5676 5668 5659 5649 5639 5629 5619 5610 5600 5590
5804 5803 5802 5800 5799 5798 5796 5795 5794 5791 5790 5788 5787 5782 5778 5774 5769 5766 5763 5759 5754 5749 5744 5739 5734 5728 5722 5716 5709 5702 5695 5687 5678 5669 5659 5648 5638 5628 5618 5608 5599 5589 5579 5570
5801 5800 5800 5797 5795 5793 5792 5789 5787 5785 5783 5779 5778 5780 5771 5763 5760 5757 5755 5752 5747 5741 5735 5730 5725 5719 5712 5704 5696 5688 5680 5671 5661 5650 5640 5631 5621 5610 5600 5588 5578 5568 5557 5547
5798 5797 5795 5794 5791 5788 5786 5783 5780 5777 5775 5772 5769 5772 5765 5757 5754 5751 5747 5742 5736 5731 5726 5720 5714 5706 5698 5689 5682 5673 5663 5654 5645 5635 5624 5614 5603 5591 5579 5567 5556 5545 5533 5522
5796 5794 5792 5789 5788 5783 5779 5776 5772 5769 5766 5765 5760 5762 5755 5750 5747 5742 5739 5733 5728 5722 5716 5709 5702 5694 5685 5676 5667 5657 5648 5638 5628 5616 5605 5594 5582 5570 5558 5546 5535 5522 5510 5496
5792 5790 5788 5785 5781 5777 5771 5767 5762 5759 5756 5754 5756 5750 5749 5743 5738 5733 5729 5724 5718 5712 5705 5696 5689 5681 5672 5663 5652 5642 5631 5620 5608 5596 5585 5574 5562 5550 5538 5524 5512 5499 5486 5474
5788 5786 5783 5779 5774 5772 5765 5758 5752 5750 5747 5743 5744 5742 5736 5734 5730 5726 5721 5715 5708 5702 5694 5686 5678 5668 5658 5647 5635 5624 5612 5601 5591 5580 5566 5554 5543 5530 5516 5501 5487 5474 5465 5456
5781 5779 5776 5774 5768 5765 5759 5750 5746 5742 5739 5736 5733 5731 5730 5724 5720 5715 5709 5702 5696 5688 5680 5672 5662 5652 5641 5629 5617 5605 5595 5585 5573 5560 5547 5534 5522 5508 5493 5479 5468 5458 5450 5443
5774 5770 5766 5764 5760 5758 5751 5744 5740 5737 5732 5729 5726 5723 5719 5714 5709 5704 5696 5691 5684 5675 5666 5657 5646 5634 5622 5610 5600 5590 5578 5566 5555 5542 5529 5515 5502 5488 5475 5463 5454 5445 5439 5431
5767 5762 5757 5752 5748 5751 5742 5736 5733 5731 5729 5724 5721 5717 5713 5708 5701 5695 5687 5678 5669 5661 5651 5640 5627 5614 5604 5594 5584 5573 5561 5548 5536 5523 5509 5496 5484 5471 5461 5451 5443 5435 5428 5420
5760 5755 5748 5743 5739 5744 5734 5730 5726 5723 5725 5719 5714 5709 5703 5698 5692 5683 5675 5666 5656 5644 5631 5619 5609 5599 5589 5578 5567 5555 5543 5530 5516 5504 5491 5480 5469 5458 5448 5440 5433 5424 5416 5407
5753 5747 5741 5734 5730 5728 5725 5723 5720 5716 5712 5709 5705 5699 5693 5686 5676 5666 5655 5644 5634 5623 5613 5604 5594 5583 5571 5560 5548 5537 5525 5513 5501 5489 5478 5466 5456 5446 5438 5430 5422 5413 5404 5395
5746 5739 5733 5726 5722 5723 5716 5713 5710 5706 5705 5696 5690 5683 5675 5666 5658 5649 5640 5628 5618 5609 5598 5588 5577 5566 5553 5542 5532 5520 5508 5497 5487 5475 5464 5454 5445 5436 5428 5420 5411 5403 5393 5383
5737 5728 5723 5718 5716 5712 5708 5705 5700 5696 5691 5685 5678 5671 5663 5654 5646 5635 5626 5616 5605 5594 5583 5571 5560 5550 5538 5526 5515 5506 5494 5482 5472 5461 5452 5444 5434 5427 5419 5410 5401 5392 5382 5371
5729 5722 5717 5712 5712 5703 5699 5695 5691 5686 5680 5673 5665 5657 5649 5640 5630 5618 5607 5597 5587 5576 5566 5554 5543 5533 5522 5508 5498 5489 5480 5469 5459 5449 5440 5433 5424 5417 5410 5401 5392 5383 5372 5361
5719 5714 5710 5704 5703 5696 5691 5686 5682 5674 5668 5660 5652 5643 5633 5624 5613 5603 5592 5581 5570 5559 5548 5538 5527 5516 5505 5494 5482 5470 5462 5453 5444 5436 5429 5422 5416 5409 5401 5392 5383 5374 5363 5353
5709 5702 5698 5696 5692 5686 5682 5676 5669 5662 5654 5644 5634 5624 5615 5606 5597 5587 5578 5566 5555 5544 5532 5520 5508 5498 5487 5476 5465 5455 5446 5438 5431 5424 5418 5413 5408 5401 5393 5385 5377 5365 5355 5347
5696 5691 5687 5684 5679 5673 5667 5661 5654 5646 5638 5630 5621 5610 5600 5590 5582 5572 5562 5549 5536 5525 5514 5502 5491 5478 5468 5458 5447 5438 5429 5422 5417 5412 5410 5405 5400 5394 5386 5378 5369 5360 5350 5341